CZ-4 DEB, 26336

Orbit data source: Space-Track

CZ-4 DEB, 26336 is space debris in SSO originally from a launch on Thu, 14 Oct 1999 UTC launched from the Taiyaun Space Center, China (TSC). Debris objects in space refer to the collection of defunct objects orbiting the Earth. Examples of debris include non-operational satellites, rocket bodies, and fragments generated from explosions, collisions, or faulty payload assembly.

Loading next visibility...
Identifier
26336, 1999-057HV
Orbit
SSO
Country
Flag of CNCN / PRC
Related business
Manufacturer
Unknown
Mission
Spacecraft
Bus & Motor
Unknown
Mass
Unknown
Launch date (UTC)
1999-10-14 (26 years ago)
Launch vehicle
Unknown
Launch site
Taiyaun Space Center, China (TSC)
Object type
Payload
Rocket body
Debris
Shape & HBR
Unknown shape, 0.1 m
Radar Cross Section
Small (<0.1 m²)

Expand to show TLE details & history
Last TLE update: 11 hours ago

TLE from 11 hours ago
0 CZ-4 DEB
1 26336U 99057HV  25349.91238780  .00003970  00000-0  60573-3 0  9994
2 26336  98.3681  43.0197 0051180  49.3621 311.2020 14.73569646358748
Epoch: 2025-12-15T21:53Z
TLE epoch observation values (Epoch: 2025-12-15T21:53:50.305Z)
Latitude
-0.00002°
Longitude
-10.24405°
Altitude
629.101 km
Speed
7.557 km/s
True Right ascension
02h 52m 04s
True Declination
0° 00' 00"
Sunlit
Object was in full shadow at epoch
Visualization orbit readout
Latitude
Unknown
Longitude
Unknown
Altitude
Unknown
Speed
Unknown
Apparent Right ascension
Unknown
Apparent Declination
Unknown
Sunlit
N/A
Visualization observer readout
Local Sidereal Time
07:52:54
Azimuth
Unknown
Elevation
Unknown
Doppler factor
Unknown
Orbital elements
Apogee altitude
682.72 km
Perigee altitude
610.813 km
Semi-major axis
7,024.903 km
Eccentricity
0.00512
Inclination
98.3681°
RAAN
43.0197°
Arg. of periapsis
49.3621°
True anomaly
310.75887°
Mean anomaly
311.202°
Eccentric anomaly
310.98062°
Mean motion
3.68623 °/min
Orbital period
97.66 mins
BSTAR
0.00060573
Loading maneuver chart data...
Computing Atmospheric mass density...
Loading historical data...
Loading historical data...
Loading historical data...
Loading historical data...
Loading historical data...
Loading historical data...
Loading historical data...

Documentation

Showing up to 5 results
|